Regional Weather Roundup
Issued by NWS

Home | Current Version | Previous Version | Text Only | Print | Product List | Glossary Off
Versions: 1 2 3 4 5 6 7 8 9 10 11 12 13 14 15 16 17 18 19 20 21 22 23 24 25 26 27 28 29 30 31 32 33 34 35 36 37 38 39 40 41 42 43 44 45 46 47 48 49 50

000
ASUS44 KMEG 270800
RWRTN
TENNESSEE HOURLY STATE WEATHER ROUNDUP
NATIONAL WEATHER SERVICE MEMPHIS TN
300 AM CDT WED AUG 27 2014

TNZ002-004-019-021-049-052-054-088>092-270900-
WEST TENNESSEE

CITY           SKY/WX    TMP DP  RH WIND       PRES   REMARKS
MEMPHIS INTL   CLEAR     76  68  76 CALM      30.06R
NWS MEMPHIS      N/A     73 N/A N/A MISG        N/A
JACKSON        PTCLDY    71  69  93 CALM      30.07S FOG
DYERSBURG      CLEAR     72  64  78 CALM      30.07S
UNION CITY     PTCLDY    70  70 100 CALM      30.06S
PARIS            N/A     68  68 100 CALM      30.08S VSB 1/4
LEXINGTON      CLEAR     70  68  94 CALM      30.07S
SAVANNAH       CLEAR     66  66 100 CALM      30.08R
$$

TNZ008-025-027-028-033-062-065-066-270900-
NORTH MIDDLE TENNESSEE

CITY           SKY/WX    TMP DP  RH WIND       PRES   REMARKS
NASHVILLE      CLEAR     72  69  90 CALM      30.08S
CLARKSVILLE    CLEAR     72  70  93 CALM      30.07S
COOKEVILLE     MOCLDY    66  66 100 CALM      30.09F VSB 1
CROSSVILLE     CLEAR     68  62  81 CALM      30.14S HAZE
$$

TNZ061-075-076-078-094-096-097-270900-
SOUTH MIDDLE TENNESSEE

CITY           SKY/WX    TMP DP  RH WIND       PRES   REMARKS
TULLAHOMA      CLEAR     64  63  94 CALM      30.11S
WINCHESTER     CLEAR     64  64 100 CALM      30.10S
SHELBYVILLE    CLEAR     68  68 100 CALM      30.09F
$$

TNZ017-018-042-046-047-270900-
NORTHEAST TENNESSEE

CITY           SKY/WX    TMP DP  RH WIND       PRES   REMARKS
TRI CITIES     CLEAR     59  56  89 CALM      30.13S
ELIZABETHTON   SUNNY     57  55  94 NE3       30.13F
$$

TNZ012-013-036-069-073-074-270900-
CENTRAL EAST TENNESSEE

CITY           SKY/WX    TMP DP  RH WIND       PRES   REMARKS
KNOXVILLE      PTCLDY    64  63  96 NE6       30.08S
OAK RIDGE      PTCLDY    67  65  93 CALM      30.11R
GATLINBURG     SUNNY     61  59  94 CALM      30.09S
$$

TNZ083-085-099-270900-
SOUTHEAST TENNESSEE

CITY           SKY/WX    TMP DP  RH WIND       PRES   REMARKS
CHATTANOOGA    CLEAR     70  66  87 CALM      30.08F
$$

SKY/WX REPORTED AS FAIR MEANS FEW OR NO CLOUDS BELOW
12 THOUSAND FEET.



USA.gov is the U.S. government's official web portal to all federal, state and local government web resources and services.